Showing default

COSMOS 2256, 22691

Orbit data source: Space-Track

COSMOS 2256, 22691 is a payload satellite owned by VKS (CIS) in LEO that was launched on Thu, 24 Jun 1993 UTC via a TSIKLON-3 launch vehicle from the Plesetsk Missile And Space Complex (PKMTR). Payload-class satellites include a variety of spacecraft equipped with specific instruments for various scientific and technological missions. These include communications satellites like Starlink; space stations such as the ISS; scientific satellites like the Hubble; Earth observation satellites from companies like Planet Labs, Umbra, and HawkEye 360; GPS; miniature CubeSats for education and research; and military/defense satellites.

Loading next visibility...
Identifier
22691, 1993-038E
Orbit
LEO
Country
Flag of CISCIS
Related business
Manufacturer
NPO PM
Mission
Defense Communications
Bus & Motor
STRELA-3, Unknown motor
Mass
225 kg wet, 225 kg dry
Launch date (UTC)
1993-06-24 (32 years ago)
Launch vehicle
TSIKLON-3
Launch site
Plesetsk Missile And Space Complex (PKMTR)
Object type
Payload
Rocket body
Debris
Shape & HBR
Cyl, 0.8 m
Radar Cross Section
1.257 m², Large (>1 m²)

Expand to show TLE details & history
Last TLE update: 15 hours ago

TLE from 15 hours ago
0 COSMOS 2256
1 22691U 93038E   25311.19800542  .00000029  00000-0  10207-3 0  9998
2 22691  82.5779 353.8282 0008038 126.9406 300.3974 12.63939935493774
Epoch: 2025-11-07T04:45Z
TLE epoch observation values (Epoch: 2025-11-07T04:45:07.668Z)
Latitude
66.21789°
Longitude
-106.99257°
Altitude
1,414.98 km
Speed
7.16 km/s
True Right ascension
00h 43m 44s
True Declination
66° 06' 05"
Sunlit
Object was in full shadow at epoch
Visualization orbit readout
Latitude
Unknown
Longitude
Unknown
Altitude
Unknown
Speed
Unknown
Apparent Right ascension
Unknown
Apparent Declination
Unknown
Sunlit
N/A
Visualization observer readout
Local Sidereal Time
15:49:29
Azimuth
Unknown
Elevation
Unknown
Doppler factor
Unknown
Orbital elements
Apogee altitude
1,410.298 km
Perigee altitude
1,397.787 km
Semi-major axis
7,782.18 km
Eccentricity
0.0008
Inclination
82.5779°
RAAN
353.8282°
Arg. of periapsis
126.9406°
True anomaly
300.31791°
Mean anomaly
300.3974°
Eccentric anomaly
300.35766°
Mean motion
3.16149 °/min
Orbital period
113.87 mins
BSTAR
0.00010207
Loading maneuver chart data...
Computing Atmospheric mass density...
Loading historical data...
Loading historical data...
Loading historical data...
Loading historical data...
Loading historical data...
Loading historical data...
Loading historical data...

Documentation

Showing up to 5 results
|